Regional Weather Roundup
Issued by NWS

Home | Current Version | Previous Version | Graphics & Text | Print | Product List | Glossary Off
Versions: 1 2 3 4 5 6 7 8 9 10 11 12 13 14 15 16 17 18 19 20 21 22 23 24 25 26 27 28 29 30 31 32 33 34 35 36 37 38 39 40 41 42 43 44 45 46 47 48 49 50

063
ASUS43 KLSX 241907
RWRMO

WEATHER SUMMARY FOR MISSOURI
NATIONAL WEATHER SERVICE SPRINGFIELD MO
200 PM CDT SAT SEP 24 2016

NOTE: "FAIR" INDICATES FEW OR NO CLOUDS BELOW 12,000 FEET WITH NO
       SIGNIFICANT WEATHER AND/OR OBSTRUCTIONS TO VISIBILITY.
       CURRENT SKY AND/OR WEATHER CONDITIONS ARE NOT AVAILABLE FOR
       CHILLICOTHE AND FARMINGTON.

MOZ001>031-035>038-043-044-053-054-242000-
...NORTHERN AND WESTERN MISSOURI...

CITY           SKY/WX    TMP DP  RH WIND       PRES   REMARKS
KANSAS CTY INT MOSUNNY   87  69  54 S16       29.99F HX  91
KANSAS C DTWN  MOSUNNY   90  70  51 S14       29.97F HX  95
LEE`S SUMMIT   MOSUNNY   85  69  58 S8        30.01F
ST JOSEPH      MOSUNNY   87  70  56 S18G24    29.95F HX  92
CHILLICOTHE      N/A     88  72  58 S7        30.02F HX  94
KIRKSVILLE     MOSUNNY   83  68  60 S9        30.06F

$$
MOZ066>068-077>081-088>096-101>105-242000-
...SOUTHWEST MISSOURI...

CITY           SKY/WX    TMP DP  RH WIND       PRES   REMARKS
SPRINGFIELD    MOSUNNY   87  65  47 S7        30.06F
JOPLIN         PTSUNNY   88  71  57 S10       30.04F HX  94
BRANSON        PTSUNNY   86  66  51 S6        30.08F

$$
MOZ032>034-039>042-045>050-055>058-069>072-242000-
...CENTRAL MISSOURI...

CITY           SKY/WX    TMP DP  RH WIND       PRES   REMARKS
COLUMBIA       MOSUNNY   86  71  60 S10       30.07F HX  91
JEFFERSON CITY MOSUNNY   88  69  53 E7        30.05F HX  92
ROLLA          SUNNY     86  68  54 S5        30.08F
SEDALIA        MOSUNNY   89  71  55 S12       30.05F HX  95
WHITEMAN AFB   SUNNY     88  72  58 S9        30.01F HX  94
OSAGE BEACH    PTSUNNY   84  71  65 CALM      30.07F

$$
MOZ051-052-059>065-242000-
...EAST CENTRAL MISSOURI...

CITY           SKY/WX    TMP DP  RH WIND       PRES   REMARKS
ST LOUIS INTL  MOSUNNY   90  65  43 VRB5      30.08F HX  92
SPIRIT OF STL  MOSUNNY   88  67  49 CALM      30.06F HX  91
ST CHARLES     MOSUNNY   87  68  52 E6        30.06F HX  90

$$
MOZ072>076-082>087-097>100-106>115-242000-
...SOUTH CENTRAL AND SOUTHEAST MISSOURI...

CITY           SKY/WX    TMP DP  RH WIND       PRES   REMARKS
CAPE GIRARDEAU SUNNY     89  68  49 S3        30.06F HX  93
FARMINGTON     PTSUNNY   85  69  58 CALM      30.10F
WEST PLAINS    SUNNY     86  65  49 VRB7      30.11F

$$



USA.gov is the U.S. government's official web portal to all federal, state and local government web resources and services.